Location: Nelson
(41.2830°S, 173.2830°E)
Time: 10:11:44
(UTC+13:00)

USA 238 DEB - Pass Details

Date: 24 January 2019
Orbit: 1027 x 1186 km, 63.4° (Epoch: 19 October)

Event Time Altitude Azimuth Distance (km) Brightness Sun altitude
Rises 22:16:02 0° 356° (N) 4,063 6.4 -13.4°
Reaches altitude 10° 22:19:00 10° 4° (N) 3,102 5.7 -13.8°
Maximum altitude 22:25:38 36° 67° (ENE) 1,777 4.4 -14.7°
Drops below altitude 10° 22:32:10 10° 130° (SE) 3,064 6.0 -15.6°
Sets 22:35:04 0° 138° (SE) 4,007 6.7 -16.0°
